[[{"header":{"parameterUnit":"m.s-1","parameterCategory":1,"la1":30.2991,"la2":30.254,"lo1":-89.0895,"lo2":-89.0444,"dy":0.0017,"dx":0.0017,"nx":28,"ny":28,"refTime":"2025-04-10T09:00:00:Z","depth":0,"parameterNumber":2,"parameterNumberName":"U-component_of_WINDS"},"data":[0,0,0,0,0,0,0,0,0,0,0,0,0,0,0,0,0,0,0,0,0,0,0,0,0,0,0,0,0,0,0,0,0,0,0,0,0,0,0,0,0,0,0,0,0,0,0,0,0,0,0,0,0,0,0,0,0,0,5.9542,5.9544,0,5.9756,5.9759,5.9761,5.9688,5.9683,5.9679,5.9674,5.99,5.9911,5.9921,0,0,0,0,0,0,0,0,0,0,0,0,0,5.9075,5.9084,5.9542,5.9544,5.9547,5.9756,5.9759,5.9762,5.9689,5.9683,5.9678,5.9672,5.9897,5.9909,5.9922,0,0,0,0,0,0,0,0,0,0,0,0,0,5.9283,5.9087,5.9541,5.9536,5.9537,5.9755,5.9759,5.9763,5.969,5.9683,5.9676,5.9669,5.9893,5.9908,5.9924,6.0162,0,0,5.9971,5.9978,0,0,0,0,0,0,0,0,5.9271,5.93,5.9534,5.9536,5.9539,5.9688,5.9677,5.9897,5.9692,5.9632,5.9674,5.9666,5.9836,5.9856,5.9912,6.0172,6.0182,5.9973,5.9982,5.9989,5.9993,0,0,0,0,0,0,0,5.9257,5.929,5.9627,5.9537,5.954,5.9525,5.9546,5.9718,5.9772,5.9637,5.9632,5.9658,5.9836,5.9897,5.9917,6.0185,5.9972,5.9986,5.9996,6.0002,6.0653,6.0661,0,0,0,0,0,0,5.924,5.9279,5.962,5.9633,5.9384,5.9539,5.9563,5.9647,5.9769,5.9781,5.9664,5.9654,5.9874,5.9898,5.9924,6.0212,5.9989,6.0003,6.0012,6.0645,6.0655,6.0664,0,0,0,0,0,0,5.923,5.9271,5.9611,5.9455,5.9497,5.9554,5.965,5.9655,5.9716,5.979,5.9799,5.9716,5.9869,5.9902,6.0103,6.0219,6.001,6.0025,6.0636,6.0648,6.0659,6.0789,0,0,0,0,0,0,5.9217,5.9268,5.9358,5.9457,5.9505,5.9785,5.9657,5.9665,5.9742,5.9731,5.9841,5.9853,5.9866,6.008,6.0119,6.0237,6.0037,6.0626,6.0642,6.0656,6.0775,6.0804,6.0829,0,0,0,0,0,5.9201,5.9387,5.9363,5.9404,5.9618,5.9792,5.9819,5.9829,5.9752,5.9844,5.9891,5.9849,6.02,6.0101,6.0144,6.0269,6.0619,6.0637,6.0654,6.0763,6.0798,6.0828,0,0,0,0,0,0,5.9302,5.94,5.9374,5.9597,5.9687,5.9779,5.9895,5.9867,5.9981,5.9966,5.9975,6.0001,6.0207,6.0258,6.0147,6.0506,6.0398,6.0425,6.0466,6.05,6.0527,6.0511,6.005,0,0,0,0,0,5.935,5.948,5.956,5.9749,5.9795,5.9838,5.9913,5.9913,6.0007,6.0045,6.0106,6.0201,6.0332,6.0419,6.0543,6.0781,6.0805,6.0888,6.0915,6.0937,6.0961,6.1092,6.113,6.0722,6.0722,6.0722,0,0,5.9451,5.9521,5.9603,5.9772,5.984,5.9978,5.987,6.0019,6.0122,6.0068,6.0261,6.031,6.0416,6.0636,6.0737,6.0685,6.1079,6.096,6.0976,6.0989,6.1114,6.1153,6.1187,6.0734,6.0732,6.073,0,0,5.9706,5.9771,5.9936,6.0007,6.0112,6.0139,6.0179,6.0276,6.0306,6.0499,6.0462,6.0584,6.081,6.0887,6.0956,6.124,6.1206,6.128,6.1423,6.155,6.1582,6.1611,6.1714,6.175,6.1304,6.1304,6.1304,0,5.9819,6.0022,6.0026,6.0178,6.0254,6.0209,6.0378,6.0448,6.0589,6.0644,6.0583,6.0865,6.0933,6.1172,6.1241,6.1297,6.1345,6.1269,6.1577,6.1606,6.1632,6.1731,6.1769,6.1312,6.1311,6.1311,6.131,0,6.0157,6.0299,6.042,6.0555,6.0645,6.0805,6.0835,6.0925,6.0917,6.0951,6.115,6.1229,6.137,6.1426,6.142,6.1665,6.1629,6.1573,6.1465,6.168,6.1772,6.181,6.1325,6.1321,6.1319,6.1317,0,0,6.0483,6.0617,6.0662,6.0723,6.0836,6.0946,6.1105,6.124,6.1319,6.1418,6.1553,6.1744,6.1692,6.1771,6.1773,6.1885,6.2106,6.1815,6.1817,6.1868,6.2382,6.2425,6.2469,6.2084,6.2091,6.2097,6.2374,0,6.0748,6.1025,6.1032,6.1287,6.1418,6.1377,6.1516,6.1601,6.1637,6.1756,6.1796,6.1932,6.1853,6.19,6.2008,6.2056,6.221,6.2036,6.2212,6.2218,6.2188,6.2517,6.2563,6.282,6.241,6.2416,6.242,0,6.1095,6.1203,6.1469,6.1563,6.1618,6.1743,6.1868,6.1981,6.2077,6.2095,6.2182,6.2168,6.2333,6.2218,6.2446,6.2327,6.2399,6.2434,6.2444,6.2463,6.2333,6.2546,6.2903,6.2942,6.2477,6.2473,6.2469,0,6.1308,6.152,6.1707,6.1761,6.1874,6.1962,6.2014,6.2103,6.2184,6.2294,6.2347,6.2475,6.2546,6.2647,6.2668,6.2582,6.2897,6.2784,6.2919,6.2919,6.2989,6.2985,6.3364,6.3033,6.3032,6.3031,6.3031,0,6.1604,6.177,6.1804,6.192,6.2104,6.2112,6.2295,6.234,6.242,6.2545,6.2517,6.2636,6.2656,6.278,6.2798,6.2985,6.3017,6.3038,6.3041,6.3042,6.3039,6.3091,6.3074,6.3042,6.3039,6.3037,6.3036,0,6.1874,6.1904,6.2105,6.2195,6.2222,6.2354,6.2432,6.2544,6.2576,6.2735,6.2772,6.2824,6.2968,6.2999,6.3171,6.3183,6.3405,6.339,6.3372,6.3372,6.3506,6.3493,6.3933,6.3992,6.362,6.3624,6.3627,0,6.2062,6.2188,6.2291,6.2372,6.2427,6.2558,6.264,6.2652,6.2739,6.2858,6.2956,6.3096,6.321,6.3442,6.3496,6.3628,6.3617,6.3762,6.3636,6.3633,6.3621,6.3614,6.3627,6.3786,6.379,6.3794,6.3796,0,6.2394,6.2402,6.252,6.2644,6.2742,6.284,6.2934,6.3002,6.3028,6.3127,6.3273,6.336,6.3534,6.3675,6.3807,6.3862,6.3836,6.3835,6.3873,6.3876,6.3861,6.3873,6.3439,6.3825,6.3822,6.382,6.3819,6.3817,6.263,6.274,6.283,6.2962,6.3034,6.3122,6.3231,6.3276,6.3397,6.3538,6.3538,6.3698,6.3792,6.3965,6.4029,6.4155,6.411,6.4166,6.418,6.4194,6.4207,6.3839,6.4179,6.4178,6.4178,6.4177,6.4176,0,6.2961,6.3016,6.3138,6.3269,6.3374,6.3336,6.3437,6.3529,6.3669,6.3757,6.3868,6.4037,6.4173,6.4237,6.4372,6.4461,6.4452,6.4496,6.4491,6.4505,6.4239,6.4193,6.4501,6.4501,6.4501,6.4501,6.4501,6.4501,6.3146,6.3331,6.335,6.357,6.3624,6.3779,6.384,6.3922,6.3993,6.4181,6.4293,6.4333,6.4413,6.4553,6.4677,6.4692,6.4744,6.4795,6.4805,6.4556,6.4523,6.4492,6.4448,6.4806,6.4806,6.506,6.5062,6.5064]},{"header":{"parameterUnit":"m.s-1","parameterCategory":1,"la1":30.2991,"la2":30.254,"lo1":-89.0895,"lo2":-89.0444,"dy":0.0017,"dx":0.0017,"nx":28,"ny":28,"refTime":"2025-04-10T09:00:00:Z","depth":0,"parameterNumber":3,"parameterNumberName":"V-component_of_WINDS"},"data":[0,0,0,0,0,0,0,0,0,0,0,0,0,0,0,0,0,0,0,0,0,0,0,0,0,0,0,0,0,0,0,0,0,0,0,0,0,0,0,0,0,0,0,0,0,0,0,0,0,0,0,0,0,0,0,0,0,0,-0.5741,-0.5741,0,-0.577,-0.577,-0.577,-0.5761,-0.576,-0.576,-0.5759,-0.579,-0.5791,-0.5792,0,0,0,0,0,0,0,0,0,0,0,0,0,-0.568,-0.5681,-0.5741,-0.5742,-0.5742,-0.577,-0.577,-0.577,-0.5761,-0.576,-0.5759,-0.5759,-0.5789,-0.5791,-0.5793,0,0,0,0,0,0,0,0,0,0,0,0,0,-0.5707,-0.5682,-0.5741,-0.574,-0.5741,-0.577,-0.577,-0.5771,-0.5761,-0.576,-0.5759,-0.5758,-0.5789,-0.5791,-0.5793,-0.5824,0,0,-0.5799,-0.58,0,0,0,0,0,0,0,0,-0.5706,-0.571,-0.574,-0.5741,-0.5741,-0.5761,-0.576,-0.5789,-0.5761,-0.5753,-0.5759,-0.5758,-0.5781,-0.5784,-0.5791,-0.5826,-0.5827,-0.5799,-0.5801,-0.5802,-0.5802,0,0,0,0,0,0,0,-0.5704,-0.5708,-0.5752,-0.5741,-0.5741,-0.5739,-0.5742,-0.5765,-0.5772,-0.5754,-0.5753,-0.5757,-0.5781,-0.5789,-0.5792,-0.5828,-0.5799,-0.5801,-0.5802,-0.5803,-0.589,-0.5891,0,0,0,0,0,0,-0.5702,-0.5707,-0.5752,-0.5753,-0.5721,-0.5741,-0.5744,-0.5755,-0.5772,-0.5773,-0.5758,-0.5756,-0.5786,-0.5789,-0.5793,-0.5831,-0.5802,-0.5803,-0.5805,-0.5889,-0.589,-0.5892,0,0,0,0,0,0,-0.57,-0.5706,-0.575,-0.573,-0.5736,-0.5743,-0.5756,-0.5756,-0.5764,-0.5774,-0.5776,-0.5765,-0.5785,-0.579,-0.5817,-0.5832,-0.5804,-0.5806,-0.5888,-0.589,-0.5891,-0.5907,0,0,0,0,0,0,-0.5699,-0.5705,-0.5717,-0.573,-0.5737,-0.5773,-0.5757,-0.5758,-0.5768,-0.5766,-0.5781,-0.5783,-0.5785,-0.5813,-0.5819,-0.5834,-0.5808,-0.5887,-0.5889,-0.589,-0.5906,-0.5909,-0.5913,0,0,0,0,0,-0.5697,-0.5721,-0.5718,-0.5723,-0.5751,-0.5774,-0.5778,-0.5779,-0.5769,-0.5781,-0.5788,-0.5782,-0.5829,-0.5816,-0.5822,-0.5838,-0.5886,-0.5888,-0.589,-0.5904,-0.5909,-0.5913,0,0,0,0,0,0,-0.571,-0.5723,-0.5719,-0.5748,-0.576,-0.5773,-0.5788,-0.5784,-0.5799,-0.5798,-0.5799,-0.5803,-0.583,-0.5837,-0.5822,-0.587,-0.5856,-0.586,-0.5864,-0.5869,-0.5872,-0.587,-0.581,0,0,0,0,0,-0.5716,-0.5733,-0.5743,-0.5768,-0.5774,-0.578,-0.579,-0.579,-0.5803,-0.5808,-0.5816,-0.5829,-0.5847,-0.5858,-0.5875,-0.5907,-0.591,-0.5921,-0.5924,-0.5927,-0.593,-0.5948,-0.5953,-0.5899,-0.5899,-0.5899,0,0,-0.5729,-0.5738,-0.5749,-0.5771,-0.578,-0.5798,-0.5784,-0.5804,-0.5818,-0.5811,-0.5836,-0.5843,-0.5858,-0.5887,-0.59,-0.5894,-0.5946,-0.593,-0.5932,-0.5934,-0.5951,-0.5956,-0.596,-0.5901,-0.5901,-0.59,0,0,-0.5762,-0.5771,-0.5792,-0.5802,-0.5816,-0.5819,-0.5825,-0.5838,-0.5842,-0.5867,-0.5863,-0.5879,-0.591,-0.592,-0.5929,-0.5967,-0.5963,-0.5972,-0.5991,-0.6008,-0.6012,-0.6016,-0.6029,-0.6034,-0.5975,-0.5975,-0.5976,0,-0.5777,-0.5803,-0.5804,-0.5824,-0.5834,-0.5828,-0.5851,-0.586,-0.5879,-0.5886,-0.5878,-0.5916,-0.5926,-0.5957,-0.5967,-0.5974,-0.5981,-0.5971,-0.6011,-0.6015,-0.6019,-0.6032,-0.6037,-0.5977,-0.5976,-0.5976,-0.5976,0,-0.5821,-0.5839,-0.5855,-0.5873,-0.5885,-0.5906,-0.591,-0.5922,-0.5921,-0.5926,-0.5953,-0.5964,-0.5983,-0.599,-0.599,-0.6022,-0.6018,-0.6011,-0.5997,-0.6025,-0.6037,-0.6042,-0.5978,-0.5978,-0.5977,-0.5977,0,0,-0.5863,-0.5881,-0.5886,-0.5894,-0.591,-0.5924,-0.5945,-0.5963,-0.5974,-0.5987,-0.6005,-0.6031,-0.6025,-0.6035,-0.6036,-0.6051,-0.608,-0.6042,-0.6043,-0.6049,-0.6117,-0.6122,-0.6128,-0.6078,-0.6079,-0.6079,-0.6116,0,-0.5897,-0.5933,-0.5934,-0.5968,-0.5985,-0.598,-0.5999,-0.601,-0.6015,-0.6031,-0.6037,-0.6056,-0.6046,-0.6052,-0.6067,-0.6074,-0.6094,-0.6071,-0.6095,-0.6096,-0.6091,-0.6134,-0.614,-0.6174,-0.6121,-0.6122,-0.6122,0,-0.5942,-0.5956,-0.5991,-0.6004,-0.6011,-0.6027,-0.6044,-0.6059,-0.6073,-0.6075,-0.6087,-0.6086,-0.6108,-0.6094,-0.6124,-0.6109,-0.6119,-0.6124,-0.6125,-0.6127,-0.6111,-0.6138,-0.6185,-0.619,-0.613,-0.6129,-0.6129,0,-0.5969,-0.5997,-0.6021,-0.6029,-0.6044,-0.6056,-0.6063,-0.6075,-0.6086,-0.6101,-0.6108,-0.6126,-0.6136,-0.615,-0.6153,-0.6142,-0.6184,-0.617,-0.6188,-0.6188,-0.6197,-0.6196,-0.6246,-0.6203,-0.6203,-0.6203,-0.6203,0,-0.6007,-0.6029,-0.6034,-0.6049,-0.6073,-0.6075,-0.6099,-0.6105,-0.6116,-0.6133,-0.613,-0.6146,-0.615,-0.6167,-0.617,-0.6196,-0.62,-0.6203,-0.6204,-0.6204,-0.6203,-0.621,-0.6208,-0.6204,-0.6204,-0.6204,-0.6204,0,-0.6041,-0.6046,-0.6072,-0.6084,-0.6088,-0.6105,-0.6116,-0.6131,-0.6136,-0.6157,-0.6162,-0.617,-0.619,-0.6195,-0.6219,-0.6221,-0.6251,-0.6249,-0.6246,-0.6246,-0.6264,-0.6262,-0.632,-0.6328,-0.628,-0.628,-0.6281,0,-0.6065,-0.6082,-0.6096,-0.6107,-0.6114,-0.6131,-0.6142,-0.6145,-0.6157,-0.6173,-0.6186,-0.6205,-0.6221,-0.6253,-0.6261,-0.628,-0.6278,-0.6297,-0.6281,-0.628,-0.6279,-0.6278,-0.628,-0.63,-0.6301,-0.6301,-0.6302,0,-0.6108,-0.6109,-0.6125,-0.6141,-0.6154,-0.6168,-0.618,-0.619,-0.6194,-0.6207,-0.6227,-0.6239,-0.6263,-0.6283,-0.6301,-0.6309,-0.6307,-0.6307,-0.6312,-0.6312,-0.6309,-0.6311,-0.6255,-0.6305,-0.6305,-0.6305,-0.6305,-0.6304,-0.6138,-0.6152,-0.6164,-0.6182,-0.6192,-0.6204,-0.6218,-0.6225,-0.6241,-0.6261,-0.6261,-0.6283,-0.6297,-0.6321,-0.633,-0.6348,-0.6342,-0.6349,-0.6351,-0.6353,-0.6355,-0.6307,-0.6351,-0.6351,-0.6351,-0.6351,-0.6351,0,-0.618,-0.6188,-0.6204,-0.6222,-0.6236,-0.6231,-0.6245,-0.6257,-0.6276,-0.6289,-0.6304,-0.6327,-0.6346,-0.6356,-0.6375,-0.6387,-0.6386,-0.6392,-0.6391,-0.6393,-0.6359,-0.6352,-0.6392,-0.6392,-0.6392,-0.6392,-0.6392,-0.6392,-0.6204,-0.6228,-0.6231,-0.626,-0.6268,-0.6289,-0.6297,-0.6308,-0.6318,-0.6344,-0.6359,-0.6365,-0.6377,-0.6397,-0.6414,-0.6417,-0.6424,-0.643,-0.6432,-0.64,-0.6396,-0.6392,-0.6386,-0.6432,-0.6432,-0.6465,-0.6466,-0.6466]}]]